Flag for Canada Weather past 2 weeks in Iqaluit, Nunavut Territory, Canada

Now
37 °F

Overcast.


Feels Like: 30 °F
Forecast: N/A
Wind: 10 mph from Northwest

Location: Iqaluit

Current Time: Sep 19, 2014 at 7:01:36 PM

Latest Report: Sep 19, 2014 at 6:00 PM


Visibility: 30 mi

Pressure: 29.72 "Hg

Humidity: 81%

Dew point: 32 °F

Location of IqaluitLocation

Historic Weather in Iqaluit — Graph

°F

Iqaluit temperature yesterday

Maximum temperature yesterday: 45 °F (at 3:52 PM)
Minimum temperature yesterday: 37 °F (at 12:00 AM)
Average temperature yesterday: 41 °F

Past Weeks' High & Low Weather Summary

 TemperatureHumidityPressure
High52 °F (Sep 4, 5:00 PM)100% (Sep 9, 3:00 PM)29.86 "Hg (Sep 9, 3:00 PM)
Low27 °F (Sep 12, 6:00 AM)47% (Sep 4, 5:00 PM)29.34 "Hg (Sep 10, 2:00 PM)
Average38 °F78%29.65 "Hg
* Reported Sep 4 5:00 PM — Sep 19 5:00 PM, Iqaluit, Weather by CustomWeather, © 2014

Note: Actual official high and low records may vary slightly from our data, if they occured in-between our weather recording intervals... More about our weather records

Advertising

Iqaluit weather history for previous 24 hours

 ConditionsComfort  
Time TempWeatherWind HumidityBarometerVisibility
5:00 PM
Sep 19
39 °FPartly sunny.12 mph81%29.72 "Hg25 mi
4:00 PM39 °FLight rain. Partly sunny.12 mph81%29.73 "Hg25 mi
3:54 PM39 °FLight rain. Mostly cloudy.13 mph81%29.73 "Hg25 mi
3:00 PM39 °FPartly sunny.15 mph81%29.73 "Hg12 mi
2:00 PM39 °FMostly cloudy.16 mph81%29.74 "Hg12 mi
1:00 PM39 °FPartly sunny.16 mph81%29.74 "Hg25 mi
12:00 PM39 °FBroken clouds.16 mph81%29.73 "Hg10 mi
11:00 AM37 °FBroken clouds.20 mph81%29.74 "Hg10 mi
10:00 AM37 °FCloudy.20 mph87%29.74 "Hg8 mi
9:00 AM36 °FMore clouds than sun.21 mph87%29.73 "Hg10 mi
8:00 AM36 °FLight rain. Mostly cloudy.17 mph93%29.74 "Hg10 mi
7:00 AM36 °FOvercast.21 mph87%29.73 "Hg10 mi
6:00 AM36 °FMore clouds than sun.20 mph87%29.72 "Hg10 mi
5:00 AM36 °FLight rain. Overcast.18 mph93%29.71 "Hg15 mi
4:00 AM37 °FLight rain. Overcast.18 mph87%29.70 "Hg15 mi
3:00 AM37 °FLight rain. Overcast.18 mph93%29.69 "Hg15 mi
2:00 AM39 °FMostly cloudy.10 mph87%29.67 "Hg15 mi
1:00 AM37 °FOvercast.9 mph93%29.66 "Hg15 mi
12:00 AM37 °FOvercast.9 mph93%29.65 "Hg15 mi
11:04 PM
Sep 18
39 °FMostly cloudy.8 mph93%29.64 "Hg15 mi
10:00 PM39 °FLight rain. Mostly cloudy.7 mph93%29.64 "Hg15 mi
9:00 PM41 °FLight rain. Mostly cloudy.6 mph87%29.63 "Hg15 mi
8:00 PM41 °FLight rain. Overcast.9 mph81%29.63 "Hg10 mi
7:00 PM43 °FLight rain. Mostly cloudy.8 mph87%29.61 "Hg10 mi
Weather by CustomWeather, © 2014

See weather overviewHow to use our weather pages